Date,TemperatureHighF,TemperatureAvgF,TemperatureLowF,DewpointHighF,DewpointAvgF,DewpointLowF,HumidityHigh,HumidityAvg,HumidityLow,PressureMaxIn,PressureMinIn,WindSpeedMaxMPH,WindSpeedAvgMPH,GustSpeedMaxMPH,PrecipitationSumIn
2013-3-1,47,40,33,32,30,27,79,67,55,29.97,29.91,5,1,9,0.00
2013-3-2,43,38,34,32,30,26,85,72,58,29.98,29.90,7,1,10,0.00
2013-3-3,45,36,31,26,23,20,73,60,41,30.07,29.96,8,2,11,0.00
2013-3-4,60,43,28,35,26,21,79,54,26,30.18,30.00,3,0,5,0.00
2013-3-5,70,54,41,58,45,30,95,73,57,30.05,29.67,7,1,13,0.21
2013-3-6,42,38,33,33,28,22,86,66,57,30.14,29.83,9,2,15,0.00
2013-3-7,60,44,29,35,31,27,93,64,36,30.24,30.12,5,1,7,0.00
2013-3-8,63,46,32,34,30,27,86,58,26,30.29,30.17,3,0,7,0.00
2013-3-9,64,50,38,40,33,29,75,55,32,30.31,30.18,4,0,5,0.00
2013-3-10,71,58,47,49,41,37,77,57,31,30.20,30.05,5,1,7,0.00
2013-3-11,67,59,53,58,54,50,98,85,68,30.06,29.76,4,1,7,0.93
2013-3-12,62,51,40,58,40,33,98,70,39,30.05,29.75,8,2,12,0.11
2013-3-13,58,48,34,36,30,24,94,54,29,30.20,30.05,7,2,13,0.00
2013-3-14,56,42,28,26,21,16,75,47,22,30.34,30.19,5,1,10,0.00
2013-3-15,74,54,33,45,36,25,87,55,32,30.21,29.96,3,0,8,0.00
2013-3-16,78,63,49,46,43,40,79,52,26,29.98,29.83,5,1,9,0.00
2013-3-17,73,61,49,57,50,42,96,71,49,29.98,29.87,3,0,6,0.00
2013-3-18,59,55,46,57,53,45,97,94,85,29.97,29.77,7,1,10,0.52
2013-3-19,68,54,44,47,37,24,99,61,21,30.03,29.84,6,1,10,0.06
2013-3-20,60,50,40,31,26,21,65,42,24,30.09,29.86,4,1,9,0.00
2013-3-21,50,42,34,30,19,7,69,44,19,29.95,29.86,7,2,11,0.00
2013-3-22,53,44,34,39,29,23,75,58,46,30.05,29.94,2,0,3,0.00
2013-3-23,56,49,43,52,46,38,98,89,73,30.01,29.79,2,0,5,1.18
2013-3-24,50,49,48,49,48,41,98,95,76,29.79,29.51,5,1,10,0.09
2013-3-25,47,42,36,38,28,23,71,60,44,30.04,29.64,9,3,16,0.00
2013-3-26,44,38,32,28,26,24,79,63,50,30.25,30.01,6,2,14,0.00
2013-3-27,56,41,29,31,27,24,89,61,31,30.32,30.21,4,1,9,0.00
2013-3-28,63,47,29,34,29,22,92,56,23,30.32,30.18,6,1,12,0.00
2013-3-29,69,52,35,43,34,29,88,57,28,30.31,30.14,3,0,5,0.00
2013-3-30,75,61,48,57,45,36,96,59,38,30.15,29.98,4,1,7,0.12
2013-3-31,72,62,56,61,57,54,98,86,57,29.99,29.82,3,0,8,0.22